Language selection

Features

My Weather Profile Weather Topics  | 

East Coast - north of Cape St. Francis: Past 24 Hour Conditions

 

Natashquan Airport

04:00 AM EST 20 January 2020
Disclaimer

This table is a summary of hourly weather conditions for the past 24 hours.
Please note that these observations might not always be representative of weather conditions over their associated marine area.

Date / Time
(EST)
Wind(knots) Conditions Visibility(km) Pressure(kPa) Air tempC) Relative humidity(%) Dew pointC) Wind Chill
20 January 2020
4:00 N 10 Clear 16 100.9 -18 74 -22 -28
3:00 N 9 Clear 16 100.9 -18 75 -22 -28
2:00 N 11 Clear 16 100.9 -18 76 -21 -28
1:00 N 11 Clear 16 101.0 -17 77 -20 -27
0:00 NNE 9 Mostly Cloudy 16 101.0 -16 78 -19 -25
19 January 2020
23:00 NNE 10 gust 15 Cloudy 16 101.0 -15 77 -18 -23
22:00 NE 12 Light Snow 15 101.0 -14 77 -17 -23
21:00 NE 12 gust 17 Cloudy 16 101.0 -14 77 -17 -23
20:00 NE 11 gust 17 Mainly Clear 16 101.0 -14 77 -17 -22
19:00 NE 13 gust 19 Cloudy 16 101.0 -14 78 -17 -23
18:00 NE 14 gust 19 Light Snow 16 101.1 -14 78 -17 -24
17:00 NE 15 gust 20 Light Snow 16 101.1 -13 77 -17 -24
16:00 ENE 13 gust 18 Light Snow 16 101.2 -13 76 -17 -23
15:00 NE 11 Partly Cloudy 16 101.2 -13 77 -17 -22
14:00 ENE 11 Sunny 16 101.2 -13 76 -17 -22
13:00 ENE 12 Light Snow 16 101.3 -14 76 -17 -23
12:00 ENE 10 Light Snow 6 101.4 -14 77 -18 -23
11:00 ENE 10 Cloudy 13 101.5 -16 73 -20 -25
10:00 ENE 6 Cloudy 11 101.7 -17 68 -22 -24
9:00 ENE 8 Mostly Cloudy 16 101.7 -18 64 -24 -27
8:00 ENE 7 Light Snow 16 101.8 -20 66 -24 -28
7:00 NE 8 Cloudy 16 101.8 -20 68 -25 -29
6:00 ENE 6 Cloudy 16 101.9 -21 66 -26 -28
5:00 E 7 Cloudy 16 101.9 -22 68 -26 -31
4:00 ENE 5 Cloudy 16 101.9 -22 67 -27 -29

Zoom-in to make a selection

Map of Atlantic - Newfoundland marine weather areas Banquereau - 44139 Blanc-Sablon Airport Cap Whittle Chevery Natashquan Airport Heath Point Îles de la Madeleine Airport Miscou Island Eskasoni (First Nations) Grand Étang Ingonish Beach North Mountain St.Paul Island J.A. Douglas McCurdy Sydney Airport Charlottetown Airport East Point North Cape Argentia Bonavista Burgeo Cape Race Corner Brook Daniel's Harbour Englee Ferolle Point La Scie Port aux Basques Rocky Harbour Sagona Island St. Anthony Airport St. John's Int'l Airport St. Lawrence Stephenville Airport Twillingate Winterland Branch Hill Wreckhouse Grates Cove Pool's Island Marticot Island Long Pond Cartwright Airport Mary's Harbour
Legend:
buoy Buoy
land station Land Station

Atlantic - Newfoundland Area

Another Region

What we are doing

Date modified: